Overview Statistics Trail Chart Weather Telemetry Raw packets
 

This is the latest recevied weather packets stored in our database for station/object MB7UUE. If no packets are shown the sender has not sent any weather packets the latest 10 day(s).

<< 33 34 35 36 37 38 39 >>
Time Temp. Humidity Pressure Rain* Wind** Luminosity Snow
1788028858 19.44° C 82% 1000.9 hPa 0 mm - - -
1788027719 19.44° C 82% 1000.5 hPa 0 mm - - -
1788026580 19.44° C 83% 1000.3 hPa 0 mm - - -
1788025439 19.44° C 85% 1000.1 hPa 0 mm - - -
1788024299 19.44° C 84% 1000 hPa 0 mm - - -
1788023159 20° C 82% 1000 hPa 0 mm - - -
1788022020 20.56° C 79% 999.9 hPa 0 mm - - -
1788020880 20° C 79% 999.9 hPa 0 mm - - -
1788020880 20° C 79% 1000 hPa 0 mm - - -
1788019739 20° C 81% 1000.3 hPa 0 mm - - -
1788018599 20° C 81% 1000.3 hPa 0 mm - - -
1788017458 20° C 81% 1000.5 hPa 0 mm - - -
1788016319 20° C 81% 1000.7 hPa 0 mm - - -
1788015180 20° C 83% 1001 hPa 0.76 mm - - -
1788014039 20° C 85% 1001.3 hPa 0.76 mm - - -
1788012900 20° C 86% 1001.6 hPa 0.76 mm - - -
1788011759 20° C 87% 1001.9 hPa 0 mm - - -
1788010619 20° C 87% 1001.9 hPa 0 mm - - -
1788009480 19.44° C 87% 1002.3 hPa 0 mm - - -
1788009480 19.44° C 87% 1002.4 hPa 0 mm - - -
1788008340 18.89° C 87% 1002.5 hPa 0.51 mm - - -
1788007199 18.89° C 86% 1002.9 hPa 0.51 mm - - -
1788006060 18.33° C 85% 1003.4 hPa 0.76 mm - - -
1788004920 18.33° C 85% 1003.9 hPa 2.03 mm - - -
1788003791 18.33° C 84% 1004.1 hPa 2.29 mm - - -

* Rain latest hour (hover to see other rain measurements)
** Current wind speed in m/s (hover to see current wind gust speed)